Zurück zum Katalog

STARLINK-6229

AktivKommunikationVLEO
NORAD 57093·PAYLOAD·🇺🇸 United States

Gestartet Jun 22, 2023 von Vandenberg Space Force Base

Loading…

Nächste Überflüge (nächste 24 Stunden)

TLE

AktuellSource: CelesTrak SupGP

Epoche: Sep 15, 2026, 02:20 UTC

1 57093C 23088AX  26258.09770833  .00040963  00000+0  14837-2 0  2589
2 57093  43.0002 106.3861 0001381 266.9543 269.3576 15.27558047    11

Verfolge STARLINK-6229 in Echtzeit mit AllMySat

Download on the App Store